FW5964 Weather Reports


time (UTC)temp
F
wind
direction
speed
knots
gust
knots
rain 1hr
in
rain 24hr
in
rain mn
in
humidity
%
barometer
mb
20260505180052 82 346 2.6 9.6 0.00 0.00 0.00 42 1016.0
20260505174551 81 40 3.5 7.8 0.00 0.00 0.00 43 1015.9
20260505173052 81 33 2.6 10.4 0.00 0.00 0.00 44 1015.9
20260505171551 81 337 2.6 13.0 0.00 0.00 0.00 45 1016.3
20260505170055 81 79 1.7 7.0 0.00 0.00 0.00 45 1016.5
20260505164600 80 62 3.5 8.7 0.00 0.00 0.00 47 1016.5
20260505163052 80 22 1.7 7.0 0.00 0.00 0.00 49 1016.5
20260505161558 79 280 2.6 10.4 0.00 0.00 0.00 48 1016.7
20260505153108 77 352 0.9 8.7 0.00 0.00 0.00 52 1016.8
20260505151556 77 35 0.9 7.8 0.00 0.00 0.00 52 1016.9
20260505130110 67 33 1.7 6.1 0.00 0.00 0.00 67 1017.5
20260505124614 65 103 1.7 9.6 0.00 0.00 0.00 68 1017.4
20260505123118 64 39 0.9 8.7 0.00 0.00 0.00 71 1017.4
20260505121556 62 30 1.7 7.0 0.00 0.00 0.00 72 1017.3
20260505120107 61 27 0.9 4.3 0.00 0.00 0.00 74 1017.2
20260505114559 61 356 0.9 5.2 0.00 0.00 0.00 75 1017.2
20260505113114 60 87 0.9 5.2 0.00 0.00 0.00 75 1017.3
20260505111601 60 6 0.9 7.0 0.00 0.00 0.00 76 1017.3
20260505101557 59 91 0.0 5.2 0.00 0.00 0.00 76 1016.5
20260505100056 59 41 0.9 6.1 0.00 0.00 0.00 76 1016.2
20260505094553 60 58 1.7 6.1 0.00 0.00 0.00 75 1016.1
20260505093104 60 343 0.9 4.3 0.00 0.00 0.00 75 1016.0
20260505091554 60 18 0.0 5.2 0.00 0.00 0.00 74 1016.0
20260505090055 60 59 0.0 6.1 0.00 0.00 0.00 73 1016.0
20260505084555 61 0 0.0 5.2 0.00 0.00 0.00 73 1015.9
20260505083055 61 5 0.0 5.2 0.00 0.00 0.00 73 1015.8
20260505081553 61 0 0.9 6.1 0.00 0.00 0.00 72 1015.6
20260505080111 61 18 0.0 6.1 0.00 0.00 0.00 72 1015.7
20260505074551 62 74 0.0 4.3 0.00 0.00 0.00 71 1015.6
20260505073100 62 58 0.9 4.3 0.00 0.00 0.00 71 1015.5
20260505071553 62 0 0.9 3.5 0.00 0.00 0.00 70 1015.5
20260505070052 62 91 0.0 7.0 0.00 0.00 0.00 69 1015.3
20260505064558 63 99 0.9 6.1 0.00 0.00 0.00 69 1015.3
20260505063101 63 77 0.9 7.8 0.00 0.00 0.00 68 1015.4
20260505061557 63 79 0.9 8.7 0.00 0.00 0.00 67 1015.5
20260505060058 63 31 1.7 7.8 0.00 0.00 0.00 67 1015.5
20260505054554 63 351 1.7 7.0 0.00 0.00 0.00 67 1015.7
20260505053113 64 34 0.9 9.6 0.00 0.00 0.00 67 1015.8
20260505051552 64 355 0.9 6.1 0.00 0.00 0.00 67 1015.6
20260505050110 64 0 0.9 7.0 0.00 0.00 0.00 67 1015.8
20260505041558 65 58 0.9 7.0 0.00 0.00 0.00 67 1015.7
20260505040054 65 43 0.9 7.0 0.00 0.00 0.00 66 1015.7
20260505034614 65 37 1.7 7.0 0.00 0.00 0.00 66 1015.6
20260505033055 65 6 0.9 7.8 0.00 0.00 0.00 66 1015.5
20260505031555 66 97 1.7 7.8 0.00 0.00 0.00 66 1015.5
20260505030053 66 46 1.7 7.0 0.00 0.00 0.00 66 1015.4
20260505024549 66 19 0.9 7.8 0.00 0.00 0.00 67 1015.6
20260505023058 66 23 1.7 7.0 0.00 0.00 0.00 67 1015.5
20260505021554 66 319 0.9 2.6 0.00 0.00 0.00 67 1015.3
20260505020057 67 41 0.9 5.2 0.00 0.00 0.00 67 1015.2
20260505014553 67 141 1.7 7.8 0.00 0.00 0.00 67 1015.3
20260505013101 67 255 0.9 5.2 0.00 0.00 0.00 66 1015.0
20260505011607 68 16 1.7 5.2 0.00 0.00 0.00 66 1015.1
20260505010053 68 82 0.9 4.3 0.00 0.00 0.00 65 1014.7
20260505004605 69 3 0.9 4.3 0.00 0.00 0.00 64 1014.5
20260505003057 69 0 0.0 4.3 0.00 0.00 0.00 63 1014.4
20260505001617 70 61 0.9 5.2 0.00 0.00 0.00 62 1014.2
20260505000105 71 45 0.9 4.3 0.00 0.00 0.00 60 1014.1
20260504234557 72 37 1.7 11.3 0.00 0.00 0.00 57 1013.9
20260504233111 74 331 0.9 7.0 0.00 0.00 0.00 51 1013.6
20260504231555 75 350 0.9 5.2 0.00 0.00 0.00 41 1013.4
20260504230053 76 6 0.9 7.8 0.00 0.00 0.00 41 1013.3
20260504224554 77 14 0.9 9.6 0.00 0.00 0.00 40 1013.4
20260504223054 78 93 1.7 5.2 0.00 0.00 0.00 38 1013.4
20260504221552 78 50 1.7 11.3 0.00 0.00 0.00 38 1013.4
20260504220054 79 41 2.6 8.7 0.00 0.00 0.00 37 1013.4
20260504214605 80 19 1.7 7.0 0.00 0.00 0.00 38 1013.3
20260504213054 79 34 1.7 7.8 0.00 0.00 0.00 38 1013.5
20260504211552 80 18 1.7 13.9 0.00 0.00 0.00 37 1013.4
20260504210100 80 60 1.7 11.3 0.00 0.00 0.00 37 1013.4
20260504204601 80 46 2.6 8.7 0.00 0.00 0.00 36 1013.6
20260504203100 79 106 3.5 12.2 0.00 0.00 0.00 36 1013.6
20260504201556 80 110 0.9 7.8 0.00 0.00 0.00 37 1013.6
20260504194603 79 43 1.7 13.9 0.00 0.00 0.00 38 1013.8
20260504193056 79 56 1.7 9.6 0.00 0.00 0.00 38 1014.0
20260504191607 79 351 1.7 7.0 0.00 0.00 0.00 38 1014.2
20260504190052 78 359 0.9 7.8 0.00 0.00 0.00 40 1014.4
20260504184555 78 89 1.7 6.1 0.00 0.00 0.00 40 1014.6
20260504183053 77 80 1.7 13.0 0.00 0.00 0.00 40 1014.7
20260504181558 76 99 1.7 7.0 0.00 0.00 0.00 42 1015.0